Kalamazoo, MI

3:33 PM EDT on May 23, 2018 (GMT -0400)
Kalamazoo-Battle Creek International

Weather History for KAZO - August, 2013

Change the Weather History Date:

Sunday, August 18, 2013

  Actual Average Record
Temperature  
Mean Temperature 68 °F 71 °F  
Max Temperature 82 °F 81 °F 98 °F (1955)
Min Temperature 53 °F 60 °F 43 °F (1963)
Degree Days  
Heating Degree Days 0 0  
Month to date heating degree days 20 0  
Since 1 June heating degree days 76 53  
Since 1 July heating degree days 37 5  
Cooling Degree Days 3 6  
Month to date cooling degree days 51 120  
Year to date cooling degree days 511 546  
Since 1 June cooling degree days 431 505  
Growing Degree Days 16 (Base 50)    
Moisture  
Dew Point 57 °F    
Average Humidity 69    
Maximum Humidity 93    
Minimum Humidity 45    
Precipitation  
Precipitation 0.00 in 0.14 in 0.46 in (2007)
Month to date precipitation 3.95 2.12  
Year to date precipitation 28.84 21.84  
Sea Level Pressure  
Sea Level Pressure 30.18 in    
Wind  
Wind Speed 2 mph (North)    
Max Wind Speed 8 mph    
Max Gust Speed 12 mph    
Visibility 8 miles    
Events      
T = Trace of Precipitation, MM = Missing Value Source: NWS Daily Summary

Daily Weather History Graph

Daily Weather History Graph

Search for Another Location

Airport or City:

Astronomy

Aug. 18, 2013 Rise Set
Actual Time 6:53 AM EDT 8:38 PM EDT
Civil Twilight 6:23 AM EDT 9:07 PM EDT
Nautical Twilight 5:46 AM EDT 9:44 PM EDT
Astronomical Twilight 5:07 AM EDT 10:23 PM EDT
Moon 6:44 PM EDT (8/18) 4:00 AM EDT (8/18)
Length of Visible Light 14h 44m
Length of Day
13h 45m
Waxing Gibbous, 92% of the Moon is Illuminated
Aug 18
Waxing Gibbous
Aug 20
Full
Aug 28
Last Quarter
Sep 5
New
Sep 12
First Quarter

Hourly Weather History & Observations

Time (EDT) Temp. Heat Index Dew Point Humidity Pressure Visibility Wind Dir Wind Speed Gust Speed Precip Events Conditions
12:53 AM 60.1 °F - 55.9 °F 86% 30.20 in 10.0 mi Calm Calm - N/A   Clear
1:53 AM 57.9 °F - 55.0 °F 90% 30.20 in 8.0 mi Calm Calm - N/A   Clear
2:53 AM 57.0 °F - 54.0 °F 89% 30.21 in 8.0 mi Calm Calm - N/A   Clear
3:53 AM 55.9 °F - 53.1 °F 90% 30.20 in 8.0 mi Calm Calm - N/A   Clear
4:53 AM 55.0 °F - 52.0 °F 89% 30.20 in 6.0 mi Calm Calm - N/A   Clear
5:37 AM 55.4 °F - 53.6 °F 94% 30.20 in 1.5 mi Calm Calm - N/A   Clear
5:50 AM 53.6 °F - 51.8 °F 94% 30.21 in 3.0 mi Calm Calm - N/A   Clear
5:53 AM 54.0 °F - 52.0 °F 93% 30.21 in 6.0 mi Calm Calm - N/A   Clear
6:53 AM 53.1 °F - 52.0 °F 96% 30.22 in 4.0 mi Calm Calm - N/A   Partly Cloudy
7:53 AM 57.0 °F - 54.0 °F 89% 30.23 in 7.0 mi NNE 3.5 mph - N/A   Clear
8:53 AM 64.0 °F - 57.0 °F 78% 30.23 in 10.0 mi NE 3.5 mph - N/A   Clear
9:53 AM 69.1 °F - 57.9 °F 68% 30.23 in 10.0 mi Calm Calm - N/A   Clear
10:53 AM 72.0 °F - 61.0 °F 68% 30.23 in 10.0 mi NE 4.6 mph - N/A   Clear
11:53 AM 75.0 °F - 60.1 °F 60% 30.22 in 10.0 mi Variable 5.8 mph - N/A   Partly Cloudy
12:53 PM 77.0 °F - 61.0 °F 58% 30.20 in 10.0 mi Variable 3.5 mph - N/A   Scattered Clouds
1:53 PM 78.1 °F - 59.0 °F 52% 30.19 in 10.0 mi Calm Calm - N/A   Scattered Clouds
2:53 PM 73.9 °F - 57.9 °F 57% 30.18 in 10.0 mi South 6.9 mph - N/A   Scattered Clouds
3:53 PM 78.1 °F - 57.0 °F 48% 30.16 in 10.0 mi Variable 3.5 mph - N/A   Scattered Clouds
4:53 PM 80.1 °F 80.6 °F 57.9 °F 47% 30.14 in 10.0 mi Variable 3.5 mph - N/A   Scattered Clouds
5:53 PM 80.1 °F 80.6 °F 57.9 °F 47% 30.13 in 10.0 mi Calm Calm - N/A   Partly Cloudy
6:53 PM 79.0 °F - 57.9 °F 48% 30.13 in 10.0 mi Calm Calm - N/A   Scattered Clouds
7:53 PM 78.1 °F - 59.0 °F 52% 30.12 in 10.0 mi Calm Calm - N/A   Scattered Clouds
8:53 PM 73.9 °F - 61.0 °F 64% 30.13 in 10.0 mi NW 4.6 mph - N/A   Mostly Cloudy
9:53 PM 69.1 °F - 60.1 °F 73% 30.14 in 10.0 mi NW 4.6 mph - N/A   Scattered Clouds
10:53 PM 66.9 °F - 60.1 °F 79% 30.14 in 10.0 mi Calm Calm - N/A   Clear
11:53 PM 64.9 °F - 60.1 °F 84% 30.14 in 10.0 mi Calm Calm - 0.00 in   Clear